User: anonymous   Login
Location: Bartlow
(52.0833°N, 0.3167°E)
Time: 17:36:07
(UTC+00:00)
Language:

ATLAS CENTAUR R/B - Orbit

View from above orbital plane
View from above orbital plane
View from above satellite
View from above satellite

Ground track
Ground track

The orbit data is extracted from the following two-line orbital elements,

1 38770U 12048N   24061.20098298 0.00014600  00000-0  72208-3 0    07
2 38770  64.6558 184.4287 0098047  65.6779 294.3221 15.13354109    08
Epoch (UTC): 01 March 2024 04:49:24
Eccentricity: 0.0098047
inclination: 64.6558°
perigee height: 458 km
apogee height: 593 km
right ascension of ascending node: 184.4287°
argument of perigee: 65.6779°
revolutions per day: 15.13354109
mean anomaly at epoch: 294.3221°
orbit number at epoch: 0

The dashed part of the orbit path shows where the satellite is in the earth's shadow,  

DLR